FW2392 Weather Reports


time (UTC)temp
C
wind
direction
speed
KPH
gust
KPH
rain 1hr
cm
rain 24hr
cm
rain mn
cm
humidity
%
barometer
mb
20260507130002 11 339 3.2 9.7 0.00 0.56 0.13 47 1012.4
20260507125402 11 5 3.2 9.7 0.00 0.58 0.13 46 1012.3
20260507124523 11 328 1.6 6.4 0.00 0.58 0.13 62 1012.2
20260507123602 10 332 3.2 11.3 0.00 0.61 0.13 61 1012.1
20260507122702 10 40 3.2 11.3 0.00 0.64 0.13 62 1012.1
20260507121802 10 357 3.2 8.0 0.00 0.66 0.13 63 1012.0
20260507120902 10 358 3.2 8.0 0.00 0.69 0.13 63 1012.1
20260507120024 10 21 3.2 8.0 0.00 0.71 0.13 62 1012.0
20260507115424 10 7 1.6 8.0 0.00 0.71 0.13 64 1011.9
20260507114503 10 5 0.0 8.0 0.00 0.71 0.13 66 1012.1
20260507113602 10 34 1.6 8.0 0.00 0.71 0.13 64 1012.0
20260507112702 10 71 0.0 3.2 0.00 0.71 0.13 64 1011.9
20260507111802 10 71 0.0 1.6 0.00 0.71 0.13 69 1011.9
20260507110902 10 10 0.0 4.8 0.00 0.71 0.13 64 1012.0
20260507110003 10 27 1.6 8.0 0.00 0.71 0.13 64 1011.8
20260507105402 10 44 1.6 8.0 0.00 0.71 0.13 64 1011.7
20260507104503 10 321 1.6 8.0 0.00 0.71 0.13 64 1011.5
20260507103602 10 323 1.6 4.8 0.00 0.71 0.13 67 1011.6
20260507102703 10 72 0.0 3.2 0.00 0.71 0.13 66 1011.4
20260507101802 10 73 0.0 4.8 0.00 0.71 0.13 66 1011.3
20260507100902 10 351 1.6 4.8 0.00 0.71 0.13 66 1011.1
20260507100002 10 18 0.0 9.7 0.00 0.71 0.13 65 1010.9
20260507095423 10 24 1.6 9.7 0.00 0.71 0.13 65 1010.8
20260507094503 10 353 3.2 12.9 0.00 0.71 0.13 65 1010.9
20260507093623 10 347 3.2 12.9 0.00 0.71 0.13 65 1010.8
20260507092702 10 4 4.8 12.9 0.00 0.71 0.13 66 1010.8
20260507091802 10 334 3.2 17.7 0.00 0.71 0.13 67 1011.0
20260507090902 10 341 4.8 17.7 0.00 0.71 0.13 66 1010.9
20260507090002 10 334 3.2 14.5 0.00 0.71 0.13 47 1010.7
20260507085403 10 340 4.8 12.9 0.00 0.71 0.13 62 1010.7
20260507084502 10 331 3.2 11.3 0.00 0.71 0.13 62 1010.7
20260507083623 10 333 3.2 8.0 0.00 0.71 0.13 62 1010.7
20260507082723 10 337 3.2 8.0 0.00 0.71 0.13 62 1010.6
20260507081802 10 359 3.2 8.0 0.00 0.71 0.13 62 1010.3
20260507080902 10 356 1.6 8.0 0.00 0.71 0.13 63 1010.1
20260507080002 10 359 1.6 6.4 0.00 0.71 0.13 63 1010.1
20260507075402 10 323 1.6 6.4 0.00 0.71 0.13 64 1010.2
20260507074502 10 345 1.6 9.7 0.00 0.71 0.13 65 1010.2
20260507073602 10 359 1.6 9.7 0.03 0.71 0.13 66 1010.0
20260507072723 10 353 3.2 9.7 0.08 0.71 0.13 66 1009.9
20260507071802 10 358 4.8 9.7 0.13 0.71 0.13 66 1010.2
20260507070923 10 6 3.2 16.1 0.13 0.71 0.13 66 1010.5
20260507070024 10 6 6.4 16.1 0.13 0.71 0.13 66 1010.7
20260507065403 10 2 4.8 16.1 0.13 0.71 0.13 66 1010.5
20260507064502 11 16 3.2 14.5 0.13 0.71 0.13 66 1010.3
20260507063602 11 358 1.6 6.4 0.10 0.69 0.10 65 1010.6
20260507062702 11 23 1.6 6.4 0.05 0.64 0.05 65 1010.7
20260507061802 11 351 1.6 9.7 0.00 0.58 0.00 65 1010.5
20260507060902 11 3 3.2 9.7 0.00 0.58 0.00 65 1010.6
20260507060002 11 20 3.2 9.7 0.00 0.58 0.00 65 1010.7
20260507055402 12 27 1.6 9.7 0.00 0.58 0.00 65 1010.6
20260507054503 12 7 1.6 9.7 0.00 0.58 0.00 65 1010.4
20260507053602 12 359 3.2 9.7 0.00 0.58 0.00 65 1010.5
20260507052723 12 360 3.2 9.7 0.00 0.58 0.00 64 1010.5
20260507051803 12 54 1.6 9.7 0.00 0.58 0.00 64 1010.3
20260507050902 12 360 3.2 16.1 0.00 0.58 0.00 64 1010.5
20260507050003 12 354 3.2 16.1 0.00 0.58 0.00 64 1010.7
20260507045402 12 348 4.8 16.1 0.00 0.58 0.00 64 1010.5
20260507044502 12 347 4.8 14.5 0.00 0.58 0.00 64 1010.7
20260507043624 12 4 3.2 14.5 0.00 0.58 0.00 64 1010.5
20260507042702 12 9 4.8 14.5 0.00 0.58 0.00 64 1010.3
20260507041802 12 12 3.2 14.5 0.00 0.58 0.00 64 1010.3
20260507040902 12 340 3.2 17.7 0.00 0.58 0.00 64 1010.0
20260507040003 12 351 4.8 17.7 0.03 0.58 0.00 64 1010.3
20260507035403 12 4 4.8 17.7 0.05 0.58 0.58 64 1009.9
20260507034503 12 341 6.4 17.7 0.05 0.58 0.58 64 1009.9
20260507033602 12 337 8.0 17.7 0.05 0.58 0.58 64 1009.8
20260507032702 13 7 6.4 17.7 0.05 0.58 0.58 64 1009.9
20260507031803 13 355 3.2 12.9 0.05 0.58 0.58 64 1009.9
20260507030903 13 354 4.8 14.5 0.05 0.58 0.58 64 1010.1
20260507030004 13 357 4.8 16.1 0.03 0.56 0.56 64 1010.0
20260507025424 13 348 6.4 16.1 0.00 0.53 0.53 63 1009.6
20260507024502 14 357 4.8 17.7 0.00 0.53 0.53 62 1009.7
20260507023623 14 348 6.4 17.7 0.00 0.53 0.53 62 1009.7
20260507022702 14 329 3.2 12.9 0.00 0.53 0.53 62 1009.8
20260507021802 14 315 1.6 12.9 0.03 0.53 0.53 63 1009.6
20260507020903 14 318 3.2 12.9 0.03 0.53 0.53 63 1009.4
20260507020002 14 286 1.6 6.4 0.03 0.53 0.53 63 1009.5
20260507015426 14 290 1.6 6.4 0.03 0.53 0.53 63 1009.6
20260507014524 14 268 3.2 11.3 0.03 0.53 0.53 63 1009.5
20260507013602 15 322 3.2 11.3 0.03 0.53 0.53 62 1009.5
20260507012702 15 308 3.2 14.5 0.03 0.53 0.53 62 1009.6
20260507011803 15 310 4.8 14.5 0.00 0.51 0.51 62 1009.7
20260507010923 15 316 4.8 14.5 0.03 0.51 0.51 62 1009.9
20260507010002 15 336 4.8 12.9 0.03 0.51 0.51 62 1009.8
20260507005403 15 325 4.8 12.9 0.03 0.51 0.51 62 1009.9
20260507004502 15 329 4.8 14.5 0.03 0.51 0.51 61 1009.7
20260507003602 16 334 4.8 14.5 0.03 0.51 0.51 61 1009.8
20260507002702 16 324 4.8 14.5 0.03 0.51 0.51 60 1009.4
20260507001823 17 285 6.4 14.5 0.13 0.51 0.51 48 1009.3
20260507000902 17 262 4.8 11.3 0.10 0.48 0.48 47 1009.1
20260507000003 17 273 3.2 6.4 0.10 0.48 0.48 49 1008.9
20260506235402 17 261 1.6 4.8 0.10 0.48 0.48 52 1008.9
20260506234504 17 261 1.6 6.4 0.13 0.48 0.48 59 1008.4
20260506233623 18 283 3.2 6.4 0.13 0.48 0.48 63 1008.2
20260506232702 18 315 3.2 6.4 0.13 0.48 0.48 65 1008.1
20260506231802 18 257 1.6 6.4 0.03 0.38 0.38 64 1008.3
20260506230902 18 252 1.6 8.0 0.03 0.38 0.38 64 1008.0
20260506230023 18 249 3.2 11.3 0.03 0.38 0.38 64 1007.9
20260506225403 19 256 4.8 11.3 0.03 0.38 0.38 64 1008.0
20260506224503 19 262 4.8 14.5 0.00 0.36 0.36 64 1008.0
20260506223602 19 238 6.4 14.5 0.00 0.36 0.36 63 1007.8
20260506222702 19 234 6.4 14.5 0.00 0.36 0.36 63 1007.9
20260506221802 19 231 3.2 9.7 0.00 0.36 0.36 64 1007.8
20260506220903 18 232 4.8 12.9 0.00 0.36 0.36 64 1007.9
20260506220002 18 233 6.4 16.1 0.00 0.36 0.36 64 1008.0
20260506215424 18 230 6.4 16.1 0.00 0.36 0.36 64 1008.0
20260506214525 18 232 6.4 16.1 0.00 0.36 0.36 64 1007.9
20260506213602 18 231 6.4 11.3 0.00 0.36 0.36 64 1007.9
20260506212723 18 228 6.4 9.7 0.00 0.36 0.36 64 1007.9
20260506211802 18 226 6.4 12.9 0.00 0.36 0.36 64 1007.6
20260506210902 18 222 6.4 12.9 0.00 0.36 0.36 64 1007.5
20260506210003 18 226 6.4 11.3 0.00 0.36 0.36 64 1007.3
20260506205402 18 231 6.4 11.3 0.00 0.36 0.36 64 1007.3
20260506204502 18 231 6.4 14.5 0.00 0.36 0.36 64 1007.3
20260506203602 18 225 6.4 14.5 0.00 0.36 0.36 64 1007.2
20260506202702 18 226 6.4 11.3 0.00 0.36 0.36 64 1007.5
20260506201802 18 237 4.8 11.3 0.00 0.36 0.36 64 1007.4
20260506200902 18 227 6.4 14.5 0.00 0.36 0.36 64 1007.3
20260506200003 18 247 6.4 14.5 0.00 0.36 0.36 64 1007.4
20260506195423 18 253 8.0 14.5 0.00 0.36 0.36 64 1007.6
20260506194502 18 250 8.0 14.5 0.00 0.36 0.36 64 1007.6
20260506193602 18 252 8.0 14.5 0.00 0.36 0.36 63 1007.5
20260506192702 18 227 8.0 14.5 0.00 0.36 0.36 63 1007.3
20260506191803 18 223 9.7 17.7 0.00 0.36 0.36 62 1007.3
20260506190923 18 235 8.0 17.7 0.00 0.36 0.36 62 1007.5
20260506190002 18 243 8.0 17.7 0.00 0.36 0.36 62 1007.6
20260506185404 18 241 9.7 17.7 0.00 0.36 0.36 61 1007.6
20260506184502 18 230 12.9 25.7 0.00 0.36 0.36 60 1007.6
20260506183603 17 229 12.9 25.7 0.00 0.36 0.36 60 1007.6
20260506182723 17 225 11.3 25.7 0.00 0.36 0.36 59 1007.8
20260506181802 17 219 11.3 20.9 0.00 0.36 0.36 58 1007.8
20260506180902 17 227 12.9 24.1 0.00 0.36 0.36 58 1007.9
20260506180003 17 222 14.5 24.1 0.00 0.36 0.36 57 1008.0
20260506175403 17 225 12.9 24.1 0.00 0.36 0.36 56 1008.0
20260506174503 17 223 12.9 24.1 0.00 0.36 0.36 55 1008.0
20260506173602 17 219 11.3 29.0 0.00 0.36 0.36 53 1008.0
20260506172724 16 228 14.5 30.6 0.00 0.36 0.36 52 1008.0
20260506171802 16 232 16.1 30.6 0.00 0.36 0.36 49 1008.0
20260506170902 16 225 12.9 24.1 0.00 0.36 0.36 46 1008.1
20260506170003 16 221 12.9 24.1 0.00 0.36 0.36 42 1008.1
20260506165402 16 223 14.5 30.6 0.00 0.36 0.36 40 1008.0
20260506164503 16 221 14.5 29.0 0.00 0.36 0.36 39 1008.0
20260506163602 15 224 14.5 29.0 0.00 0.36 0.36 39 1008.2
20260506162703 15 218 16.1 29.0 0.00 0.36 0.36 38 1008.0
20260506161802 15 223 14.5 24.1 0.00 0.36 0.36 40 1008.0
20260506160902 15 221 12.9 30.6 0.00 0.36 0.36 41 1008.2
20260506160003 15 223 17.7 33.8 0.00 0.36 0.36 42 1008.1
20260506155423 15 217 16.1 33.8 0.00 0.36 0.36 43 1008.2
20260506154502 15 218 16.1 33.8 0.03 0.36 0.36 44 1008.1
20260506152702 15 210 17.7 32.2 0.05 0.36 0.36 46 1007.8
20260506151802 15 209 16.1 30.6 0.05 0.36 0.36 46 1008.2
20260506150902 15 206 12.9 25.7 0.05 0.36 0.36 44 1007.9
20260506150004 15 210 14.5 27.4 0.08 0.36 0.36 42 1008.1
20260506145402 15 214 12.9 27.4 0.08 0.36 0.36 40 1008.6
20260506144502 15 217 14.5 27.4 0.05 0.33 0.33 38 1008.7
20260506143603 15 214 12.9 24.1 0.05 0.30 0.30 37 1008.8
20260506142723 15 210 14.5 30.6 0.08 0.30 0.30 37 1008.4
20260506141802 15 204 14.5 27.4 0.10 0.30 0.30 36 1008.2
20260506140902 15 205 12.9 27.4 0.13 0.30 0.30 36 1008.2
20260506140002 15 199 12.9 27.4 0.13 0.28 0.28 35 1008.3
20260506135402 15 203 12.9 29.0 0.15 0.28 0.28 35 1008.1
20260506134503 15 199 14.5 29.0 0.15 0.28 0.28 34 1008.2
20260506133602 15 208 14.5 27.4 0.15 0.25 0.25 34 1008.7
20260506132703 15 211 11.3 24.1 0.15 0.23 0.23 38 1008.9
20260506131823 15 208 11.3 20.9 0.15 0.20 0.20 44 1008.8
20260506130902 15 215 12.9 22.5 0.15 0.18 0.18 51 1008.8